Time,TemperatureF,DewpointF,PressureIn,WindDirection,WindDirectionDegrees,WindSpeedMPH,WindSpeedGustMPH,Humidity,HourlyPrecipIn,Conditions,Clouds,dailyrainin,SoftwareType,DateUTC
2013-03-03 00:01:00,41.0,30.0,-100.00,SW,225,6.0,15.0,64,-99.99,,,-99.99,,2013-03-03 08:01:00,
2013-03-03 00:11:00,40.0,29.0,-100.00,North,0,1.0,4.0,65,-99.99,,,-99.99,,2013-03-03 08:11:00,
2013-03-03 00:21:00,40.0,29.0,-100.00,North,0,1.0,4.0,65,-99.99,,,-99.99,,2013-03-03 08:21:00,
2013-03-03 00:31:00,39.0,29.0,-100.00,NE,45,1.0,2.0,67,-99.99,,,-99.99,,2013-03-03 08:31:00,
2013-03-03 00:41:00,40.0,30.0,-100.00,SW,225,4.0,7.0,68,-99.99,,,-99.99,,2013-03-03 08:41:00,
2013-03-03 00:54:00,40.0,30.0,-100.00,SW,225,3.0,9.0,68,-99.99,,,-99.99,,2013-03-03 08:54:00,
2013-03-03 01:01:00,40.0,30.0,-100.00,SW,225,3.0,9.0,68,-99.99,,,-99.99,,2013-03-03 09:01:00,
2013-03-03 01:11:00,41.0,31.0,-100.00,SW,225,9.0,12.0,67,-99.99,,,-99.99,,2013-03-03 09:11:00,
2013-03-03 01:21:00,41.0,31.0,-100.00,SW,225,9.0,12.0,67,-99.99,,,-99.99,,2013-03-03 09:21:00,
2013-03-03 01:32:00,41.0,30.0,-100.00,North,0,1.0,8.0,65,-99.99,,,-99.99,,2013-03-03 09:32:00,
2013-03-03 01:41:00,41.0,30.0,-100.00,SW,225,4.0,11.0,64,-99.99,,,-99.99,,2013-03-03 09:41:00,
2013-03-03 01:52:00,42.0,30.0,-100.00,SW,225,5.0,14.0,62,-99.99,,,-99.99,,2013-03-03 09:52:00,
2013-03-03 02:01:00,42.0,30.0,-100.00,SW,225,5.0,14.0,62,-99.99,,,-99.99,,2013-03-03 10:01:00,
2013-03-03 02:11:00,41.0,30.0,-100.00,SW,225,3.0,5.0,64,-99.99,,,-99.99,,2013-03-03 10:11:00,
2013-03-03 02:21:00,41.0,30.0,-100.00,SW,225,3.0,5.0,64,-99.99,,,-99.99,,2013-03-03 10:21:00,
2013-03-03 02:32:00,40.0,29.0,-100.00,NW,315,6.0,9.0,66,-99.99,,,-99.99,,2013-03-03 10:32:00,
2013-03-03 02:42:00,38.0,29.0,-100.00,North,0,3.0,6.0,69,-99.99,,,-99.99,,2013-03-03 10:42:00,
2013-03-03 02:52:00,38.0,29.0,-100.00,North,0,3.0,4.0,71,-99.99,,,-99.99,,2013-03-03 10:52:00,
2013-03-03 03:01:00,38.0,29.0,-100.00,North,0,3.0,4.0,71,-99.99,,,-99.99,,2013-03-03 11:01:00,
2013-03-03 03:11:00,37.0,30.0,-100.00,North,0,3.0,4.0,73,-99.99,,,-99.99,,2013-03-03 11:11:00,
2013-03-03 03:21:00,37.0,29.0,-100.00,North,0,2.0,4.0,74,-99.99,,,-99.99,,2013-03-03 11:21:00,
2013-03-03 03:31:00,37.0,29.0,-100.00,North,0,2.0,4.0,74,-99.99,,,-99.99,,2013-03-03 11:31:00,
2013-03-03 03:42:00,36.0,29.0,-100.00,East,90,0.0,3.0,75,-99.99,,,-99.99,,2013-03-03 11:42:00,
2013-03-03 03:52:00,36.0,30.0,-100.00,NE,45,2.0,3.0,77,-99.99,,,-99.99,,2013-03-03 11:52:00,
2013-03-03 04:01:00,36.0,30.0,-100.00,NE,45,2.0,3.0,77,-99.99,,,-99.99,,2013-03-03 12:01:00,
2013-03-03 04:11:00,36.0,30.0,-100.00,North,0,5.0,9.0,78,-99.99,,,-99.99,,2013-03-03 12:11:00,
2013-03-03 04:21:00,36.0,30.0,-100.00,North,0,8.0,11.0,79,-99.99,,,-99.99,,2013-03-03 12:21:00,
2013-03-03 04:32:00,36.0,30.0,-100.00,North,0,8.0,11.0,79,-99.99,,,-99.99,,2013-03-03 12:32:00,
2013-03-03 04:42:00,35.0,30.0,-100.00,North,0,10.0,14.0,80,-99.99,,,-99.99,,2013-03-03 12:42:00,
2013-03-03 04:53:00,35.0,30.0,-100.00,North,0,10.0,14.0,80,-99.99,,,-99.99,,2013-03-03 12:53:00,
2013-03-03 05:01:00,35.0,29.0,-100.00,North,0,10.0,17.0,80,-99.99,,,-99.99,,2013-03-03 13:01:00,
2013-03-03 05:11:00,34.0,28.0,-100.00,NW,315,9.0,16.0,77,-99.99,,,-99.99,,2013-03-03 13:11:00,
2013-03-03 05:21:00,34.0,28.0,-100.00,NW,315,9.0,16.0,77,-99.99,,,-99.99,,2013-03-03 13:21:00,
2013-03-03 05:32:00,34.0,27.0,-100.00,North,0,9.0,12.0,76,-99.99,,,-99.99,,2013-03-03 13:32:00,
2013-03-03 05:42:00,34.0,27.0,-100.00,North,0,9.0,12.0,76,-99.99,,,-99.99,,2013-03-03 13:42:00,
2013-03-03 05:52:00,34.0,27.0,-100.00,North,0,9.0,12.0,76,-99.99,,,-99.99,,2013-03-03 13:52:00,
2013-03-03 06:01:00,33.0,27.0,-100.00,North,0,9.0,12.0,78,-99.99,,,-99.99,,2013-03-03 14:01:00,
2013-03-03 06:11:00,32.0,26.0,-100.00,North,0,9.0,12.0,79,-99.99,,,-99.99,,2013-03-03 14:11:00,
2013-03-03 06:21:00,32.0,26.0,-100.00,North,0,9.0,12.0,79,-99.99,,,-99.99,,2013-03-03 14:21:00,
2013-03-03 06:31:00,31.0,26.0,-100.00,NE,45,4.0,9.0,79,-99.99,,,-99.99,,2013-03-03 14:31:00,
2013-03-03 06:42:00,31.0,25.0,-100.00,North,0,6.0,9.0,79,-99.99,,,-99.99,,2013-03-03 14:42:00,
2013-03-03 06:52:00,31.0,25.0,-100.00,North,0,6.0,9.0,79,-99.99,,,-99.99,,2013-03-03 14:52:00,
2013-03-03 07:01:00,31.0,25.0,-100.00,North,0,6.0,8.0,79,-99.99,,,-99.99,,2013-03-03 15:01:00,
2013-03-03 07:11:00,30.0,24.0,-100.00,North,0,6.0,8.0,79,-99.99,,,-99.99,,2013-03-03 15:11:00,
2013-03-03 07:22:00,30.0,24.0,-100.00,North,0,6.0,8.0,79,-99.99,,,-99.99,,2013-03-03 15:22:00,
2013-03-03 07:32:00,30.0,24.0,-100.00,North,0,4.0,6.0,78,-99.99,,,-99.99,,2013-03-03 15:32:00,
2013-03-03 07:42:00,29.0,24.0,-100.00,NE,45,4.0,4.0,79,-99.99,,,-99.99,,2013-03-03 15:42:00,
2013-03-03 07:52:00,29.0,24.0,-100.00,North,0,4.0,6.0,80,-99.99,,,-99.99,,2013-03-03 15:52:00,
2013-03-03 08:01:00,29.0,24.0,-100.00,North,0,4.0,6.0,80,-99.99,,,-99.99,,2013-03-03 16:01:00,
2013-03-03 08:12:00,30.0,24.0,-100.00,NE,45,2.0,3.0,79,-99.99,,,-99.99,,2013-03-03 16:12:00,
2013-03-03 08:21:00,30.0,24.0,-100.00,NE,45,1.0,4.0,77,-99.99,,,-99.99,,2013-03-03 16:21:00,
2013-03-03 08:31:00,30.0,24.0,-100.00,NE,45,1.0,4.0,77,-99.99,,,-99.99,,2013-03-03 16:31:00,
2013-03-03 08:42:00,31.0,24.0,-100.00,NW,315,3.0,5.0,76,-99.99,,,-99.99,,2013-03-03 16:42:00,
2013-03-03 08:52:00,31.0,24.0,-100.00,NW,315,3.0,5.0,76,-99.99,,,-99.99,,2013-03-03 16:52:00,
2013-03-03 09:01:00,31.0,23.0,-100.00,North,0,3.0,8.0,72,-99.99,,,-99.99,,2013-03-03 17:01:00,
2013-03-03 09:11:00,32.0,23.0,-100.00,North,0,4.0,8.0,70,-99.99,,,-99.99,,2013-03-03 17:11:00,
2013-03-03 09:22:00,32.0,23.0,-100.00,North,0,4.0,8.0,70,-99.99,,,-99.99,,2013-03-03 17:22:00,
2013-03-03 09:32:00,32.0,22.0,-100.00,North,0,4.0,9.0,67,-99.99,,,-99.99,,2013-03-03 17:32:00,
2013-03-03 09:42:00,33.0,23.0,-100.00,NE,45,6.0,8.0,66,-99.99,,,-99.99,,2013-03-03 17:42:00,
2013-03-03 09:52:00,33.0,23.0,-100.00,NE,45,6.0,8.0,66,-99.99,,,-99.99,,2013-03-03 17:52:00,
2013-03-03 10:01:00,33.0,22.0,-100.00,NE,45,5.0,9.0,64,-99.99,,,-99.99,,2013-03-03 18:01:00,
2013-03-03 10:11:00,33.0,22.0,-100.00,West,270,1.0,8.0,63,-99.99,,,-99.99,,2013-03-03 18:11:00,
2013-03-03 10:21:00,34.0,22.0,-100.00,North,0,4.0,7.0,61,-99.99,,,-99.99,,2013-03-03 18:21:00,
2013-03-03 10:31:00,34.0,22.0,-100.00,North,0,4.0,7.0,61,-99.99,,,-99.99,,2013-03-03 18:31:00,
2013-03-03 10:42:00,35.0,22.0,-100.00,East,90,0.0,8.0,58,-99.99,,,-99.99,,2013-03-03 18:42:00,
2013-03-03 10:52:00,35.0,22.0,-100.00,East,90,0.0,8.0,58,-99.99,,,-99.99,,2013-03-03 18:52:00,
2013-03-03 11:01:00,36.0,21.0,-100.00,NW,315,3.0,6.0,54,-99.99,,,-99.99,,2013-03-03 19:01:00,
2013-03-03 11:11:00,36.0,20.0,-100.00,NE,45,2.0,8.0,51,-99.99,,,-99.99,,2013-03-03 19:11:00,
2013-03-03 11:21:00,37.0,19.0,-100.00,NE,45,4.0,9.0,47,-99.99,,,-99.99,,2013-03-03 19:21:00,
2013-03-03 11:31:00,37.0,19.0,-100.00,NE,45,4.0,9.0,47,-99.99,,,-99.99,,2013-03-03 19:31:00,
2013-03-03 11:42:00,37.0,16.0,-100.00,West,270,4.0,9.0,42,-99.99,,,-99.99,,2013-03-03 19:42:00,
2013-03-03 11:52:00,38.0,15.0,-100.00,NE,45,5.0,8.0,39,-99.99,,,-99.99,,2013-03-03 19:52:00,
2013-03-03 12:01:00,38.0,15.0,-100.00,NE,45,5.0,8.0,39,-99.99,,,-99.99,,2013-03-03 20:01:00,
2013-03-03 12:11:00,38.0,15.0,-100.00,NE,45,5.0,11.0,38,-99.99,,,-99.99,,2013-03-03 20:11:00,
2013-03-03 12:21:00,38.0,13.0,-100.00,West,270,6.0,11.0,35,-99.99,,,-99.99,,2013-03-03 20:21:00,
2013-03-03 12:32:00,38.0,13.0,-100.00,West,270,6.0,11.0,35,-99.99,,,-99.99,,2013-03-03 20:32:00,
2013-03-03 12:42:00,39.0,13.0,-100.00,East,90,3.0,12.0,34,-99.99,,,-99.99,,2013-03-03 20:42:00,
2013-03-03 12:52:00,39.0,12.0,-100.00,North,0,4.0,12.0,33,-99.99,,,-99.99,,2013-03-03 20:52:00,
2013-03-03 13:01:00,39.0,12.0,-100.00,North,0,4.0,12.0,33,-99.99,,,-99.99,,2013-03-03 21:01:00,
2013-03-03 13:11:00,40.0,13.0,-100.00,NE,45,8.0,13.0,33,-99.99,,,-99.99,,2013-03-03 21:11:00,
2013-03-03 13:21:00,40.0,13.0,-100.00,NE,45,8.0,13.0,33,-99.99,,,-99.99,,2013-03-03 21:21:00,
2013-03-03 13:32:00,41.0,14.0,-100.00,East,90,4.0,13.0,33,-99.99,,,-99.99,,2013-03-03 21:32:00,
2013-03-03 13:41:00,41.0,13.0,-100.00,North,0,6.0,11.0,32,-99.99,,,-99.99,,2013-03-03 21:41:00,
2013-03-03 13:52:00,41.0,13.0,-100.00,North,0,6.0,12.0,32,-99.99,,,-99.99,,2013-03-03 21:52:00,
2013-03-03 14:01:00,41.0,13.0,-100.00,North,0,6.0,12.0,32,-99.99,,,-99.99,,2013-03-03 22:01:00,
2013-03-03 14:11:00,40.0,12.0,-100.00,North,0,9.0,16.0,31,-99.99,,,-99.99,,2013-03-03 22:11:00,
2013-03-03 14:21:00,41.0,12.0,-100.00,North,0,8.0,16.0,30,-99.99,,,-99.99,,2013-03-03 22:21:00,
2013-03-03 14:31:00,42.0,14.0,-100.00,North,0,9.0,14.0,31,-99.99,,,-99.99,,2013-03-03 22:31:00,
2013-03-03 14:42:00,42.0,14.0,-100.00,North,0,9.0,14.0,31,-99.99,,,-99.99,,2013-03-03 22:42:00,
2013-03-03 14:52:00,42.0,14.0,-100.00,North,0,9.0,14.0,31,-99.99,,,-99.99,,2013-03-03 22:52:00,
2013-03-03 15:01:00,41.0,12.0,-100.00,North,0,9.0,16.0,30,-99.99,,,-99.99,,2013-03-03 23:01:00,
2013-03-03 15:11:00,42.0,11.0,-100.00,North,0,9.0,15.0,28,-99.99,,,-99.99,,2013-03-03 23:11:00,
2013-03-03 15:21:00,42.0,11.0,-100.00,North,0,9.0,15.0,28,-99.99,,,-99.99,,2013-03-03 23:21:00,
2013-03-03 15:31:00,42.0,10.0,-100.00,North,0,6.0,12.0,27,-99.99,,,-99.99,,2013-03-03 23:31:00,
2013-03-03 15:41:00,41.0,11.0,-100.00,NW,315,6.0,13.0,28,-99.99,,,-99.99,,2013-03-03 23:41:00,
2013-03-03 15:52:00,42.0,11.0,-100.00,NE,45,7.0,13.0,28,-99.99,,,-99.99,,2013-03-03 23:52:00,
2013-03-03 16:01:00,42.0,11.0,-100.00,NE,45,7.0,13.0,28,-99.99,,,-99.99,,2013-03-04 00:01:00,
2013-03-03 16:11:00,42.0,12.0,-100.00,North,0,4.0,9.0,29,-99.99,,,-99.99,,2013-03-04 00:11:00,
2013-03-03 16:21:00,42.0,13.0,-100.00,North,0,10.0,14.0,30,-99.99,,,-99.99,,2013-03-04 00:21:00,
2013-03-03 16:32:00,42.0,13.0,-100.00,North,0,10.0,14.0,30,-99.99,,,-99.99,,2013-03-04 00:32:00,
2013-03-03 16:42:00,42.0,13.0,-100.00,North,0,4.0,10.0,30,-99.99,,,-99.99,,2013-03-04 00:42:00,
2013-03-03 16:52:00,41.0,12.0,-100.00,NE,45,8.0,13.0,30,-99.99,,,-99.99,,2013-03-04 00:52:00,
2013-03-03 17:01:00,41.0,12.0,-100.00,NE,45,8.0,13.0,30,-99.99,,,-99.99,,2013-03-04 01:01:00,
2013-03-03 17:11:00,42.0,13.0,-100.00,East,90,7.0,10.0,30,-99.99,,,-99.99,,2013-03-04 01:11:00,
2013-03-03 17:21:00,42.0,13.0,-100.00,East,90,7.0,10.0,30,-99.99,,,-99.99,,2013-03-04 01:21:00,
2013-03-03 17:31:00,41.0,12.0,-100.00,North,0,3.0,9.0,30,-99.99,,,-99.99,,2013-03-04 01:31:00,
2013-03-03 17:42:00,41.0,12.0,-100.00,North,0,4.0,10.0,30,-99.99,,,-99.99,,2013-03-04 01:42:00,
2013-03-03 17:52:00,41.0,13.0,-100.00,North,0,4.0,9.0,31,-99.99,,,-99.99,,2013-03-04 01:52:00,
2013-03-03 18:01:00,41.0,13.0,-100.00,North,0,4.0,9.0,31,-99.99,,,-99.99,,2013-03-04 02:01:00,
2013-03-03 18:11:00,41.0,12.0,-100.00,NE,45,6.0,9.0,31,-99.99,,,-99.99,,2013-03-04 02:11:00,
2013-03-03 18:22:00,41.0,12.0,-100.00,NE,45,6.0,9.0,31,-99.99,,,-99.99,,2013-03-04 02:22:00,
2013-03-03 18:31:00,40.0,12.0,-100.00,North,0,6.0,9.0,31,-99.99,,,-99.99,,2013-03-04 02:31:00,
2013-03-03 18:42:00,39.0,11.0,-100.00,North,0,4.0,8.0,31,-99.99,,,-99.99,,2013-03-04 02:42:00,
2013-03-03 18:52:00,38.0,10.0,-100.00,North,0,3.0,6.0,31,-99.99,,,-99.99,,2013-03-04 02:52:00,
2013-03-03 19:01:00,38.0,10.0,-100.00,North,0,3.0,6.0,31,-99.99,,,-99.99,,2013-03-04 03:01:00,
2013-03-03 19:11:00,37.0,10.0,-100.00,North,0,3.0,6.0,32,-99.99,,,-99.99,,2013-03-04 03:11:00,
2013-03-03 19:21:00,37.0,10.0,-100.00,North,0,3.0,6.0,32,-99.99,,,-99.99,,2013-03-04 03:21:00,
2013-03-03 19:31:00,37.0,10.0,-100.00,North,0,5.0,8.0,33,-99.99,,,-99.99,,2013-03-04 03:31:00,
2013-03-03 19:41:00,36.0,10.0,-100.00,NW,315,3.0,8.0,34,-99.99,,,-99.99,,2013-03-04 03:41:00,
2013-03-03 19:52:00,35.0,10.0,-100.00,North,0,3.0,6.0,35,-99.99,,,-99.99,,2013-03-04 03:52:00,
2013-03-03 20:01:00,35.0,10.0,-100.00,North,0,3.0,6.0,35,-99.99,,,-99.99,,2013-03-04 04:01:00,
2013-03-03 20:11:00,34.0,11.0,-100.00,NW,315,4.0,7.0,37,-99.99,,,-99.99,,2013-03-04 04:11:00,
2013-03-03 20:22:00,34.0,11.0,-100.00,NW,315,4.0,7.0,37,-99.99,,,-99.99,,2013-03-04 04:22:00,
2013-03-03 20:31:00,34.0,12.0,-100.00,NW,315,4.0,6.0,40,-99.99,,,-99.99,,2013-03-04 04:31:00,
2013-03-03 20:42:00,33.0,13.0,-100.00,North,0,4.0,8.0,44,-99.99,,,-99.99,,2013-03-04 04:42:00,
2013-03-03 20:52:00,32.0,14.0,-100.00,NW,315,3.0,6.0,46,-99.99,,,-99.99,,2013-03-04 04:52:00,
2013-03-03 21:01:00,32.0,14.0,-100.00,NW,315,3.0,6.0,46,-99.99,,,-99.99,,2013-03-04 05:01:00,
2013-03-03 21:11:00,32.0,15.0,-100.00,North,0,2.0,5.0,49,-99.99,,,-99.99,,2013-03-04 05:11:00,
2013-03-03 21:22:00,32.0,15.0,-100.00,North,0,2.0,5.0,49,-99.99,,,-99.99,,2013-03-04 05:22:00,
2013-03-03 21:31:00,31.0,16.0,-100.00,North,0,3.0,6.0,52,-99.99,,,-99.99,,2013-03-04 05:31:00,
2013-03-03 21:42:00,31.0,16.0,-100.00,North,0,1.0,3.0,54,-99.99,,,-99.99,,2013-03-04 05:42:00,
2013-03-03 21:52:00,31.0,17.0,-100.00,NW,315,3.0,4.0,57,-99.99,,,-99.99,,2013-03-04 05:52:00,
2013-03-03 22:01:00,31.0,17.0,-100.00,NW,315,3.0,4.0,57,-99.99,,,-99.99,,2013-03-04 06:01:00,
2013-03-03 22:11:00,30.0,18.0,-100.00,North,0,3.0,6.0,59,-99.99,,,-99.99,,2013-03-04 06:11:00,
2013-03-03 22:21:00,30.0,18.0,-100.00,North,0,3.0,6.0,60,-99.99,,,-99.99,,2013-03-04 06:21:00,
2013-03-03 22:31:00,30.0,18.0,-100.00,North,0,3.0,6.0,60,-99.99,,,-99.99,,2013-03-04 06:31:00,
2013-03-03 22:42:00,29.0,18.0,-100.00,NW,315,1.0,4.0,61,-99.99,,,-99.99,,2013-03-04 06:42:00,
2013-03-03 22:52:00,29.0,18.0,-100.00,West,270,1.0,4.0,63,-99.99,,,-99.99,,2013-03-04 06:52:00,
2013-03-03 23:01:00,29.0,18.0,-100.00,West,270,1.0,4.0,63,-99.99,,,-99.99,,2013-03-04 07:01:00,
2013-03-03 23:11:00,29.0,18.0,-100.00,West,270,1.0,3.0,63,-99.99,,,-99.99,,2013-03-04 07:11:00,
2013-03-03 23:21:00,29.0,18.0,-100.00,West,270,1.0,3.0,63,-99.99,,,-99.99,,2013-03-04 07:21:00,
2013-03-03 23:32:00,28.0,18.0,-100.00,SW,225,1.0,2.0,64,-99.99,,,-99.99,,2013-03-04 07:32:00,
2013-03-03 23:41:00,28.0,18.0,-100.00,East,90,1.0,4.0,64,-99.99,,,-99.99,,2013-03-04 07:41:00,
2013-03-03 23:52:00,28.0,18.0,-100.00,West,270,2.0,4.0,65,-99.99,,,-99.99,,2013-03-04 07:52:00,